Location: Budapest
(47.4979°N, 19.0402°E)
Time: 02:39:31
(UTC+01:00)

Envisat - Pass Details

Date: 16 October 2017
Orbit: 764 x 766 km, 98.2° (Epoch: 15 December)

Event Time Altitude Azimuth Distance (km) Brightness Sun altitude
Exits shadow 20:05:28 58° 103° (ESE) 893 2.9 -22.9°
Maximum altitude 20:06:01 62° 72° (ENE) 862 2.9 -23.0°
Drops below altitude 10° 20:11:03 10° 352° (N) 2,317 5.7 -23.8°
Sets 20:13:23 0° 350° (N) 3,248 6.6 -24.2°
